STARLINK-30482, 57907

Orbit data source: Space-Track

STARLINK-30482, 57907 is a payload satellite owned by SpaceX/Seattle (US) in LEO that was launched on Wed, 20 Sep 2023 UTC via an FALCON 9 launch vehicle from the Air Force Eastern Test Range (AFETR). Payload-class satellites include a variety of spacecraft equipped with specific instruments for various scientific and technological missions. These include communications satellites like Starlink; space stations such as the ISS; scientific satellites like the Hubble; Earth observation satellites from companies like Planet Labs, Umbra, and HawkEye 360; GPS; miniature CubeSats for education and research; and military/defense satellites.

Loading next visibility...
Identifier
57907, 2023-146S
Orbit
LEO
Country
Flag of USUS
Related business
Manufacturer
SpaceX/Seattle
Mission
Operational Commercial Communications
Bus & Motor
STARLINK V2M, Unknown motor
Mass
730 kg wet, ~700 kg dry
Launch date (UTC)
2023-09-20 (3 years ago)
Launch vehicle
FALCON 9
Launch site
Air Force Eastern Test Range (AFETR)
Object type
Payload
Rocket body
Debris
Shape & HBR
Box + 2 Pan, 17.7 m
Radar Cross Section
33.884 m², Large (>1 m²)

Expand to show TLE details & history
Last TLE update: 2 days ago

TLE from 2 days ago
0 STARLINK-30482
1 57907U 23146S   26171.16691095 -.00002381  00000-0 -77004-4 0  9996
2 57907  43.0050  95.9075 0001801 263.9668  96.0978 15.27586550151670
Epoch: 2026-06-20T04:00Z
TLE epoch observation values (Epoch: 2026-06-20T04:00:21.106Z)
Latitude
-0.00004°
Longitude
127.43409°
Altitude
482.937 km
Speed
7.626 km/s
True Right ascension
06h 23m 37s
True Declination
0° 00' 00"
Sunlit
Object was in daylight at epoch
Visualization orbit readout
Latitude
Unknown
Longitude
Unknown
Altitude
Unknown
Speed
Unknown
Apparent Right ascension
Unknown
Apparent Declination
Unknown
Sunlit
N/A
Visualization observer readout
Local Sidereal Time
21:26:20
Azimuth
Unknown
Elevation
Unknown
Doppler factor
Unknown
Orbital elements
Apogee altitude
486.21 km
Perigee altitude
483.738 km
Semi-major axis
6,863.111 km
Eccentricity
0.00018
Inclination
43.005°
RAAN
95.9075°
Arg. of periapsis
263.9668°
True anomaly
96.11832°
Mean anomaly
96.0978°
Eccentric anomaly
96.10806°
Mean motion
3.81735 °/min
Orbital period
94.31 mins
BSTAR
-0.000077004
Loading maneuver chart data...
Computing Atmospheric mass density...
Loading historical data...
Loading historical data...
Loading historical data...
Loading historical data...
Loading historical data...
Loading historical data...
Loading historical data...

Documentation

Showing up to 5 results
|